Location: Peterborough
(44.3091°N, 78.3197°W)
Time: 15:35:34
(UTC-04:00)

Transit 4A - Pass Details

Date: 30 March 2023
Orbit: 864 x 980 km, 66.8° (Epoch: 04 June)

Event Time Altitude Azimuth Distance (km) Brightness Sun altitude
Rises 06:00:27 0° 196° (SSW) 3,428 10.6 -11.0°
Reaches altitude 10° 06:02:56 10° 192° (SSW) 2,499 9.9 -10.6°
Maximum altitude 06:08:33 55° 115° (ESE) 1,039 8.5 -9.6°
Drops below altitude 10° 06:14:17 10° 39° (NE) 2,559 11.1 -8.6°
Sets 06:16:51 0° 36° (NE) 3,518 11.8 -8.2°
